<?xml version="1.0" encoding="UTF-8" standalone="no" ?>
<gpx xmlns="http://www.topografix.com/GPX/1/1" creator="MapSource 6.11.6" version="1.1" xmlns:xsi="http://www.w3.org/2001/XMLSchema-instance" xsi:schemaLocation="http://www.topografix.com/GPX/1/1 http://www.topografix.com/GPX/1/1/gpx.xsd">

  <metadata>
    <link href="http://www.garmin.com">
      <text>Garmin International</text>
    </link>
    <time>2010-01-30T12:21:19Z</time>
    <bounds maxlat="50.698513" maxlon="6.409112" minlat="50.664825" minlon="6.350479"/>
  </metadata>

  <trk>
    <name>Baeche-und Hoehen-der-Rureifel</name>
    <extensions>
      <gpxx:TrackExtension xmlns:gpxx="http://www.garmin.com/xmlschemas/GpxExtensions/v3" xmlns:xsi="http://www.w3.org/2001/XMLSchema-instance" xsi:schemaLocation="http://www.garmin.com/xmlschemas/GpxExtensions/v3 http://www.garmin.com/xmlschemas/GpxExtensions/v3/GpxExtensionsv3.xsd">
        <gpxx:DisplayColor>White</gpxx:DisplayColor>
      </gpxx:TrackExtension>
    </extensions>
    <trkseg>
      <trkpt lat="50.685596" lon="6.374087">
        <ele>0.000000</ele>
        <time>2009-12-17T10:05:53Z</time>
      </trkpt>
      <trkpt lat="50.685573" lon="6.373964">
        <ele>0.000000</ele>
        <time>2009-12-17T10:05:53Z</time>
      </trkpt>
      <trkpt lat="50.685505" lon="6.373873">
        <ele>0.000000</ele>
        <time>2009-12-17T10:05:53Z</time>
      </trkpt>
      <trkpt lat="50.685539" lon="6.373814">
        <ele>0.000000</ele>
        <time>2009-12-17T10:05:53Z</time>
      </trkpt>
      <trkpt lat="50.686001" lon="6.373594">
        <ele>0.000000</ele>
        <time>2009-12-17T10:05:53Z</time>
      </trkpt>
      <trkpt lat="50.686382" lon="6.373309">
        <ele>0.000000</ele>
        <time>2009-12-17T10:05:53Z</time>
      </trkpt>
      <trkpt lat="50.686738" lon="6.372988">
        <ele>0.000000</ele>
        <time>2009-12-17T10:05:53Z</time>
      </trkpt>
      <trkpt lat="50.687204" lon="6.372773">
        <ele>0.000000</ele>
        <time>2009-12-17T10:05:53Z</time>
      </trkpt>
      <trkpt lat="50.687738" lon="6.372585">
        <ele>0.000000</ele>
        <time>2009-12-17T10:05:53Z</time>
      </trkpt>
      <trkpt lat="50.688183" lon="6.373594">
        <ele>0.000000</ele>
        <time>2009-12-17T10:05:53Z</time>
      </trkpt>
      <trkpt lat="50.688560" lon="6.374436">
        <ele>0.000000</ele>
        <time>2009-12-17T10:05:53Z</time>
      </trkpt>
      <trkpt lat="50.688604" lon="6.374919">
        <ele>0.000000</ele>
        <time>2009-12-17T10:05:53Z</time>
      </trkpt>
      <trkpt lat="50.688859" lon="6.374978">
        <ele>0.000000</ele>
        <time>2009-12-17T10:05:53Z</time>
      </trkpt>
      <trkpt lat="50.689039" lon="6.375192">
        <ele>0.000000</ele>
        <time>2009-12-17T10:05:53Z</time>
      </trkpt>
      <trkpt lat="50.689427" lon="6.375343">
        <ele>0.000000</ele>
        <time>2009-12-17T10:05:53Z</time>
      </trkpt>
      <trkpt lat="50.689753" lon="6.375273">
        <ele>0.000000</ele>
        <time>2009-12-17T10:05:53Z</time>
      </trkpt>
      <trkpt lat="50.689974" lon="6.375686">
        <ele>0.000000</ele>
        <time>2009-12-17T10:05:53Z</time>
      </trkpt>
      <trkpt lat="50.690181" lon="6.376158">
        <ele>0.000000</ele>
        <time>2009-12-17T10:05:53Z</time>
      </trkpt>
      <trkpt lat="50.690303" lon="6.376780">
        <ele>0.000000</ele>
        <time>2009-12-17T10:05:53Z</time>
      </trkpt>
      <trkpt lat="50.690548" lon="6.377059">
        <ele>0.000000</ele>
        <time>2009-12-17T10:05:53Z</time>
      </trkpt>
      <trkpt lat="50.690637" lon="6.377242">
        <ele>0.000000</ele>
        <time>2009-12-17T10:05:53Z</time>
      </trkpt>
      <trkpt lat="50.690728" lon="6.377499">
        <ele>0.000000</ele>
        <time>2009-12-17T10:05:53Z</time>
      </trkpt>
      <trkpt lat="50.690936" lon="6.377875">
        <ele>0.000000</ele>
        <time>2009-12-17T10:05:53Z</time>
      </trkpt>
      <trkpt lat="50.691055" lon="6.378111">
        <ele>0.000000</ele>
        <time>2009-12-17T10:05:53Z</time>
      </trkpt>
      <trkpt lat="50.691377" lon="6.378545">
        <ele>0.000000</ele>
        <time>2009-12-17T10:05:53Z</time>
      </trkpt>
      <trkpt lat="50.691972" lon="6.379146">
        <ele>0.000000</ele>
        <time>2009-12-17T10:05:53Z</time>
      </trkpt>
      <trkpt lat="50.692478" lon="6.379350">
        <ele>0.000000</ele>
        <time>2009-12-17T10:05:53Z</time>
      </trkpt>
      <trkpt lat="50.693284" lon="6.379634">
        <ele>0.000000</ele>
        <time>2009-12-17T10:05:53Z</time>
      </trkpt>
      <trkpt lat="50.693515" lon="6.379800">
        <ele>0.000000</ele>
        <time>2009-12-17T10:05:53Z</time>
      </trkpt>
      <trkpt lat="50.693719" lon="6.379897">
        <ele>0.000000</ele>
        <time>2009-12-17T10:05:53Z</time>
      </trkpt>
      <trkpt lat="50.694028" lon="6.379876">
        <ele>0.000000</ele>
        <time>2009-12-17T10:05:53Z</time>
      </trkpt>
      <trkpt lat="50.694174" lon="6.379988">
        <ele>0.000000</ele>
        <time>2009-12-17T10:05:53Z</time>
      </trkpt>
      <trkpt lat="50.694337" lon="6.380165">
        <ele>0.000000</ele>
        <time>2009-12-17T10:05:53Z</time>
      </trkpt>
      <trkpt lat="50.694596" lon="6.380380">
        <ele>0.000000</ele>
        <time>2009-12-17T10:05:53Z</time>
      </trkpt>
      <trkpt lat="50.694816" lon="6.380680">
        <ele>0.000000</ele>
        <time>2009-12-17T10:05:53Z</time>
      </trkpt>
      <trkpt lat="50.695068" lon="6.380932">
        <ele>0.000000</ele>
        <time>2009-12-17T10:05:53Z</time>
      </trkpt>
      <trkpt lat="50.695200" lon="6.381211">
        <ele>0.000000</ele>
        <time>2009-12-17T10:05:53Z</time>
      </trkpt>
      <trkpt lat="50.695306" lon="6.381823">
        <ele>0.000000</ele>
        <time>2009-12-17T10:05:53Z</time>
      </trkpt>
      <trkpt lat="50.695662" lon="6.383003">
        <ele>0.000000</ele>
        <time>2009-12-17T10:05:53Z</time>
      </trkpt>
      <trkpt lat="50.696023" lon="6.383969">
        <ele>0.000000</ele>
        <time>2009-12-17T10:05:53Z</time>
      </trkpt>
      <trkpt lat="50.696444" lon="6.384789">
        <ele>0.000000</ele>
        <time>2009-12-17T10:05:53Z</time>
      </trkpt>
      <trkpt lat="50.696825" lon="6.385519">
        <ele>0.000000</ele>
        <time>2009-12-17T10:05:53Z</time>
      </trkpt>
      <trkpt lat="50.697158" lon="6.385996">
        <ele>0.000000</ele>
        <time>2009-12-17T10:05:53Z</time>
      </trkpt>
      <trkpt lat="50.697345" lon="6.386114">
        <ele>0.000000</ele>
        <time>2009-12-17T10:05:53Z</time>
      </trkpt>
      <trkpt lat="50.697793" lon="6.386581">
        <ele>0.000000</ele>
        <time>2009-12-17T10:05:53Z</time>
      </trkpt>
      <trkpt lat="50.697966" lon="6.386785">
        <ele>0.000000</ele>
        <time>2009-12-17T10:05:53Z</time>
      </trkpt>
      <trkpt lat="50.698224" lon="6.387665">
        <ele>0.000000</ele>
        <time>2009-12-17T10:05:53Z</time>
      </trkpt>
      <trkpt lat="50.698347" lon="6.388164">
        <ele>0.000000</ele>
        <time>2009-12-17T10:05:53Z</time>
      </trkpt>
      <trkpt lat="50.698445" lon="6.389161">
        <ele>0.000000</ele>
        <time>2009-12-17T10:05:53Z</time>
      </trkpt>
      <trkpt lat="50.698364" lon="6.390004">
        <ele>0.000000</ele>
        <time>2009-12-17T10:05:53Z</time>
      </trkpt>
      <trkpt lat="50.698371" lon="6.390261">
        <ele>0.000000</ele>
        <time>2009-12-17T10:05:53Z</time>
      </trkpt>
      <trkpt lat="50.698456" lon="6.390878">
        <ele>0.000000</ele>
        <time>2009-12-17T10:05:53Z</time>
      </trkpt>
      <trkpt lat="50.698513" lon="6.391388">
        <ele>0.000000</ele>
        <time>2009-12-17T10:05:53Z</time>
      </trkpt>
      <trkpt lat="50.698479" lon="6.391516">
        <ele>0.000000</ele>
        <time>2009-12-17T10:05:53Z</time>
      </trkpt>
      <trkpt lat="50.698401" lon="6.391618">
        <ele>0.000000</ele>
        <time>2009-12-17T10:05:53Z</time>
      </trkpt>
      <trkpt lat="50.698326" lon="6.391645">
        <ele>0.000000</ele>
        <time>2009-12-17T10:05:53Z</time>
      </trkpt>
      <trkpt lat="50.698143" lon="6.391538">
        <ele>0.000000</ele>
        <time>2009-12-17T10:05:53Z</time>
      </trkpt>
      <trkpt lat="50.697229" lon="6.391227">
        <ele>0.000000</ele>
        <time>2009-12-17T10:05:53Z</time>
      </trkpt>
      <trkpt lat="50.696828" lon="6.390942">
        <ele>0.000000</ele>
        <time>2009-12-17T10:05:53Z</time>
      </trkpt>
      <trkpt lat="50.696295" lon="6.390830">
        <ele>0.000000</ele>
        <time>2009-12-17T10:05:53Z</time>
      </trkpt>
      <trkpt lat="50.695860" lon="6.390996">
        <ele>0.000000</ele>
        <time>2009-12-17T10:05:53Z</time>
      </trkpt>
      <trkpt lat="50.695112" lon="6.391945">
        <ele>0.000000</ele>
        <time>2009-12-17T10:05:53Z</time>
      </trkpt>
      <trkpt lat="50.694997" lon="6.392444">
        <ele>0.000000</ele>
        <time>2009-12-17T10:05:53Z</time>
      </trkpt>
      <trkpt lat="50.694905" lon="6.392611">
        <ele>0.000000</ele>
        <time>2009-12-17T10:05:53Z</time>
      </trkpt>
      <trkpt lat="50.694745" lon="6.392815">
        <ele>0.000000</ele>
        <time>2009-12-17T10:05:53Z</time>
      </trkpt>
      <trkpt lat="50.694949" lon="6.393340">
        <ele>0.000000</ele>
        <time>2009-12-17T10:05:53Z</time>
      </trkpt>
      <trkpt lat="50.695075" lon="6.393641">
        <ele>0.000000</ele>
        <time>2009-12-17T10:05:53Z</time>
      </trkpt>
      <trkpt lat="50.695194" lon="6.393855">
        <ele>0.000000</ele>
        <time>2009-12-17T10:05:53Z</time>
      </trkpt>
      <trkpt lat="50.695122" lon="6.393957">
        <ele>0.000000</ele>
        <time>2009-12-17T10:05:53Z</time>
      </trkpt>
      <trkpt lat="50.695027" lon="6.394247">
        <ele>0.000000</ele>
        <time>2009-12-17T10:05:53Z</time>
      </trkpt>
      <trkpt lat="50.694945" lon="6.394472">
        <ele>0.000000</ele>
        <time>2009-12-17T10:05:53Z</time>
      </trkpt>
      <trkpt lat="50.694664" lon="6.394944">
        <ele>0.000000</ele>
        <time>2009-12-17T10:05:53Z</time>
      </trkpt>
      <trkpt lat="50.694426" lon="6.395684">
        <ele>0.000000</ele>
        <time>2009-12-17T10:05:53Z</time>
      </trkpt>
      <trkpt lat="50.694225" lon="6.396162">
        <ele>0.000000</ele>
        <time>2009-12-17T10:05:53Z</time>
      </trkpt>
      <trkpt lat="50.694161" lon="6.396350">
        <ele>0.000000</ele>
        <time>2009-12-17T10:05:53Z</time>
      </trkpt>
      <trkpt lat="50.693760" lon="6.397063">
        <ele>0.000000</ele>
        <time>2009-12-17T10:05:53Z</time>
      </trkpt>
      <trkpt lat="50.693651" lon="6.397160">
        <ele>0.000000</ele>
        <time>2009-12-17T10:05:53Z</time>
      </trkpt>
      <trkpt lat="50.693155" lon="6.397498">
        <ele>0.000000</ele>
        <time>2009-12-17T10:05:53Z</time>
      </trkpt>
      <trkpt lat="50.693066" lon="6.397583">
        <ele>0.000000</ele>
        <time>2009-12-17T10:05:53Z</time>
      </trkpt>
      <trkpt lat="50.693019" lon="6.397680">
        <ele>0.000000</ele>
        <time>2009-12-17T10:05:53Z</time>
      </trkpt>
      <trkpt lat="50.692968" lon="6.397895">
        <ele>0.000000</ele>
        <time>2009-12-17T10:05:53Z</time>
      </trkpt>
      <trkpt lat="50.692924" lon="6.398098">
        <ele>0.000000</ele>
        <time>2009-12-17T10:05:53Z</time>
      </trkpt>
      <trkpt lat="50.692900" lon="6.398152">
        <ele>0.000000</ele>
        <time>2009-12-17T10:05:53Z</time>
      </trkpt>
      <trkpt lat="50.692822" lon="6.398265">
        <ele>0.000000</ele>
        <time>2009-12-17T10:05:53Z</time>
      </trkpt>
      <trkpt lat="50.692710" lon="6.398420">
        <ele>0.000000</ele>
        <time>2009-12-17T10:05:53Z</time>
      </trkpt>
      <trkpt lat="50.692675" lon="6.398528">
        <ele>0.000000</ele>
        <time>2009-12-17T10:05:53Z</time>
      </trkpt>
      <trkpt lat="50.692665" lon="6.398694">
        <ele>0.000000</ele>
        <time>2009-12-17T10:05:53Z</time>
      </trkpt>
      <trkpt lat="50.692672" lon="6.398908">
        <ele>0.000000</ele>
        <time>2009-12-17T10:05:53Z</time>
      </trkpt>
      <trkpt lat="50.692618" lon="6.399166">
        <ele>0.000000</ele>
        <time>2009-12-17T10:05:53Z</time>
      </trkpt>
      <trkpt lat="50.692509" lon="6.399579">
        <ele>0.000000</ele>
        <time>2009-12-17T10:05:53Z</time>
      </trkpt>
      <trkpt lat="50.692390" lon="6.399976">
        <ele>0.000000</ele>
        <time>2009-12-17T10:05:53Z</time>
      </trkpt>
      <trkpt lat="50.692380" lon="6.400083">
        <ele>0.000000</ele>
        <time>2009-12-17T10:05:53Z</time>
      </trkpt>
      <trkpt lat="50.692373" lon="6.400276">
        <ele>0.000000</ele>
        <time>2009-12-17T10:05:53Z</time>
      </trkpt>
      <trkpt lat="50.692380" lon="6.400754">
        <ele>0.000000</ele>
        <time>2009-12-17T10:05:53Z</time>
      </trkpt>
      <trkpt lat="50.692404" lon="6.401162">
        <ele>0.000000</ele>
        <time>2009-12-17T10:05:53Z</time>
      </trkpt>
      <trkpt lat="50.692417" lon="6.401516">
        <ele>0.000000</ele>
        <time>2009-12-17T10:05:53Z</time>
      </trkpt>
      <trkpt lat="50.692411" lon="6.401682">
        <ele>0.000000</ele>
        <time>2009-12-17T10:05:53Z</time>
      </trkpt>
      <trkpt lat="50.692326" lon="6.402149">
        <ele>0.000000</ele>
        <time>2009-12-17T10:05:53Z</time>
      </trkpt>
      <trkpt lat="50.692309" lon="6.402594">
        <ele>0.000000</ele>
        <time>2009-12-17T10:05:53Z</time>
      </trkpt>
      <trkpt lat="50.692281" lon="6.402862">
        <ele>0.000000</ele>
        <time>2009-12-17T10:05:53Z</time>
      </trkpt>
      <trkpt lat="50.692305" lon="6.403179">
        <ele>0.000000</ele>
        <time>2009-12-17T10:05:53Z</time>
      </trkpt>
      <trkpt lat="50.692363" lon="6.403565">
        <ele>0.000000</ele>
        <time>2009-12-17T10:05:53Z</time>
      </trkpt>
      <trkpt lat="50.692431" lon="6.403785">
        <ele>0.000000</ele>
        <time>2009-12-17T10:05:53Z</time>
      </trkpt>
      <trkpt lat="50.692478" lon="6.403887">
        <ele>0.000000</ele>
        <time>2009-12-17T10:05:53Z</time>
      </trkpt>
      <trkpt lat="50.692577" lon="6.403994">
        <ele>0.000000</ele>
        <time>2009-12-17T10:05:53Z</time>
      </trkpt>
      <trkpt lat="50.692805" lon="6.404123">
        <ele>0.000000</ele>
        <time>2009-12-17T10:05:53Z</time>
      </trkpt>
      <trkpt lat="50.692910" lon="6.404166">
        <ele>0.000000</ele>
        <time>2009-12-17T10:05:53Z</time>
      </trkpt>
      <trkpt lat="50.692968" lon="6.404241">
        <ele>0.000000</ele>
        <time>2009-12-17T10:05:53Z</time>
      </trkpt>
      <trkpt lat="50.693015" lon="6.404380">
        <ele>0.000000</ele>
        <time>2009-12-17T10:05:53Z</time>
      </trkpt>
      <trkpt lat="50.693002" lon="6.404461">
        <ele>0.000000</ele>
        <time>2009-12-17T10:05:53Z</time>
      </trkpt>
      <trkpt lat="50.692941" lon="6.404530">
        <ele>0.000000</ele>
        <time>2009-12-17T10:05:53Z</time>
      </trkpt>
      <trkpt lat="50.692917" lon="6.404536">
        <ele>0.000000</ele>
        <time>2009-12-17T10:05:53Z</time>
      </trkpt>
      <trkpt lat="50.692815" lon="6.404514">
        <ele>0.000000</ele>
        <time>2009-12-17T10:05:53Z</time>
      </trkpt>
      <trkpt lat="50.692727" lon="6.404530">
        <ele>0.000000</ele>
        <time>2009-12-17T10:05:53Z</time>
      </trkpt>
      <trkpt lat="50.692546" lon="6.404616">
        <ele>0.000000</ele>
        <time>2009-12-17T10:05:53Z</time>
      </trkpt>
      <trkpt lat="50.692489" lon="6.404691">
        <ele>0.000000</ele>
        <time>2009-12-17T10:05:53Z</time>
      </trkpt>
      <trkpt lat="50.692322" lon="6.404772">
        <ele>0.000000</ele>
        <time>2009-12-17T10:05:53Z</time>
      </trkpt>
      <trkpt lat="50.692237" lon="6.404906">
        <ele>0.000000</ele>
        <time>2009-12-17T10:05:53Z</time>
      </trkpt>
      <trkpt lat="50.692094" lon="6.405180">
        <ele>0.000000</ele>
        <time>2009-12-17T10:05:53Z</time>
      </trkpt>
      <trkpt lat="50.692047" lon="6.405308">
        <ele>0.000000</ele>
        <time>2009-12-17T10:05:53Z</time>
      </trkpt>
      <trkpt lat="50.691914" lon="6.405512">
        <ele>0.000000</ele>
        <time>2009-12-17T10:05:53Z</time>
      </trkpt>
      <trkpt lat="50.691826" lon="6.405630">
        <ele>0.000000</ele>
        <time>2009-12-17T10:05:53Z</time>
      </trkpt>
      <trkpt lat="50.691741" lon="6.405705">
        <ele>0.000000</ele>
        <time>2009-12-17T10:05:53Z</time>
      </trkpt>
      <trkpt lat="50.691456" lon="6.405898">
        <ele>0.000000</ele>
        <time>2009-12-17T10:05:53Z</time>
      </trkpt>
      <trkpt lat="50.690589" lon="6.406413">
        <ele>0.000000</ele>
        <time>2009-12-17T10:05:53Z</time>
      </trkpt>
      <trkpt lat="50.690259" lon="6.406478">
        <ele>0.000000</ele>
        <time>2009-12-17T10:05:53Z</time>
      </trkpt>
      <trkpt lat="50.689875" lon="6.406542">
        <ele>0.000000</ele>
        <time>2009-12-17T10:05:53Z</time>
      </trkpt>
      <trkpt lat="50.689073" lon="6.406633">
        <ele>0.000000</ele>
        <time>2009-12-17T10:05:53Z</time>
      </trkpt>
      <trkpt lat="50.688832" lon="6.406628">
        <ele>0.000000</ele>
        <time>2009-12-17T10:05:53Z</time>
      </trkpt>
      <trkpt lat="50.688791" lon="6.406601">
        <ele>0.000000</ele>
        <time>2009-12-17T10:05:53Z</time>
      </trkpt>
      <trkpt lat="50.688693" lon="6.406585">
        <ele>0.000000</ele>
        <time>2009-12-17T10:05:53Z</time>
      </trkpt>
      <trkpt lat="50.688652" lon="6.406564">
        <ele>0.000000</ele>
        <time>2009-12-17T10:05:53Z</time>
      </trkpt>
      <trkpt lat="50.688611" lon="6.406526">
        <ele>0.000000</ele>
        <time>2009-12-17T10:05:53Z</time>
      </trkpt>
      <trkpt lat="50.688468" lon="6.406687">
        <ele>0.000000</ele>
        <time>2009-12-17T10:05:53Z</time>
      </trkpt>
      <trkpt lat="50.688220" lon="6.406698">
        <ele>0.000000</ele>
        <time>2009-12-17T10:05:53Z</time>
      </trkpt>
      <trkpt lat="50.687938" lon="6.406708">
        <ele>0.000000</ele>
        <time>2009-12-17T10:05:53Z</time>
      </trkpt>
      <trkpt lat="50.687612" lon="6.406746">
        <ele>0.000000</ele>
        <time>2009-12-17T10:05:53Z</time>
      </trkpt>
      <trkpt lat="50.687204" lon="6.406805">
        <ele>0.000000</ele>
        <time>2009-12-17T10:05:53Z</time>
      </trkpt>
      <trkpt lat="50.687020" lon="6.406901">
        <ele>0.000000</ele>
        <time>2009-12-17T10:05:53Z</time>
      </trkpt>
      <trkpt lat="50.686375" lon="6.407266">
        <ele>0.000000</ele>
        <time>2009-12-17T10:05:53Z</time>
      </trkpt>
      <trkpt lat="50.685950" lon="6.407701">
        <ele>0.000000</ele>
        <time>2009-12-17T10:05:53Z</time>
      </trkpt>
      <trkpt lat="50.685528" lon="6.408414">
        <ele>0.000000</ele>
        <time>2009-12-17T10:05:53Z</time>
      </trkpt>
      <trkpt lat="50.685093" lon="6.409112">
        <ele>0.000000</ele>
        <time>2009-12-17T10:05:53Z</time>
      </trkpt>
      <trkpt lat="50.684923" lon="6.408768">
        <ele>0.000000</ele>
        <time>2009-12-17T10:05:53Z</time>
      </trkpt>
      <trkpt lat="50.684808" lon="6.408672">
        <ele>0.000000</ele>
        <time>2009-12-17T10:05:53Z</time>
      </trkpt>
      <trkpt lat="50.684631" lon="6.409004">
        <ele>0.000000</ele>
        <time>2009-12-17T10:05:53Z</time>
      </trkpt>
      <trkpt lat="50.684645" lon="6.408371">
        <ele>0.000000</ele>
        <time>2009-12-17T10:05:53Z</time>
      </trkpt>
      <trkpt lat="50.684216" lon="6.407497">
        <ele>0.000000</ele>
        <time>2009-12-17T10:05:53Z</time>
      </trkpt>
      <trkpt lat="50.684002" lon="6.407358">
        <ele>0.000000</ele>
        <time>2009-12-17T10:05:53Z</time>
      </trkpt>
      <trkpt lat="50.683849" lon="6.407561">
        <ele>0.000000</ele>
        <time>2009-12-17T10:05:53Z</time>
      </trkpt>
      <trkpt lat="50.683795" lon="6.407443">
        <ele>0.000000</ele>
        <time>2009-12-17T10:05:53Z</time>
      </trkpt>
      <trkpt lat="50.683839" lon="6.407373">
        <ele>0.000000</ele>
        <time>2009-12-17T10:05:53Z</time>
      </trkpt>
      <trkpt lat="50.683659" lon="6.406982">
        <ele>0.000000</ele>
        <time>2009-12-17T10:05:53Z</time>
      </trkpt>
      <trkpt lat="50.683051" lon="6.406483">
        <ele>0.000000</ele>
        <time>2009-12-17T10:05:53Z</time>
      </trkpt>
      <trkpt lat="50.683221" lon="6.405796">
        <ele>0.000000</ele>
        <time>2009-12-17T10:05:53Z</time>
      </trkpt>
      <trkpt lat="50.683578" lon="6.404820">
        <ele>0.000000</ele>
        <time>2009-12-17T10:05:53Z</time>
      </trkpt>
      <trkpt lat="50.683917" lon="6.404021">
        <ele>0.000000</ele>
        <time>2009-12-17T10:05:53Z</time>
      </trkpt>
      <trkpt lat="50.683873" lon="6.403211">
        <ele>0.000000</ele>
        <time>2009-12-17T10:05:53Z</time>
      </trkpt>
      <trkpt lat="50.683730" lon="6.402460">
        <ele>0.000000</ele>
        <time>2009-12-17T10:05:53Z</time>
      </trkpt>
      <trkpt lat="50.683465" lon="6.401473">
        <ele>0.000000</ele>
        <time>2009-12-17T10:05:53Z</time>
      </trkpt>
      <trkpt lat="50.682986" lon="6.400625">
        <ele>0.000000</ele>
        <time>2009-12-17T10:05:53Z</time>
      </trkpt>
      <trkpt lat="50.682473" lon="6.399853">
        <ele>0.000000</ele>
        <time>2009-12-17T10:05:53Z</time>
      </trkpt>
      <trkpt lat="50.681508" lon="6.398925">
        <ele>0.000000</ele>
        <time>2009-12-17T10:05:53Z</time>
      </trkpt>
      <trkpt lat="50.681212" lon="6.399000">
        <ele>0.000000</ele>
        <time>2009-12-17T10:05:53Z</time>
      </trkpt>
      <trkpt lat="50.680709" lon="6.399488">
        <ele>0.000000</ele>
        <time>2009-12-17T10:05:53Z</time>
      </trkpt>
      <trkpt lat="50.680100" lon="6.400046">
        <ele>0.000000</ele>
        <time>2009-12-17T10:05:53Z</time>
      </trkpt>
      <trkpt lat="50.678894" lon="6.401038">
        <ele>0.000000</ele>
        <time>2009-12-17T10:05:53Z</time>
      </trkpt>
      <trkpt lat="50.678659" lon="6.401231">
        <ele>0.000000</ele>
        <time>2009-12-17T10:05:53Z</time>
      </trkpt>
      <trkpt lat="50.677928" lon="6.401982">
        <ele>0.000000</ele>
        <time>2009-12-17T10:05:53Z</time>
      </trkpt>
      <trkpt lat="50.677565" lon="6.402149">
        <ele>0.000000</ele>
        <time>2009-12-17T10:05:53Z</time>
      </trkpt>
      <trkpt lat="50.676895" lon="6.402519">
        <ele>0.000000</ele>
        <time>2009-12-17T10:05:53Z</time>
      </trkpt>
      <trkpt lat="50.676341" lon="6.403173">
        <ele>0.000000</ele>
        <time>2009-12-17T10:05:53Z</time>
      </trkpt>
      <trkpt lat="50.676177" lon="6.403474">
        <ele>0.000000</ele>
        <time>2009-12-17T10:05:53Z</time>
      </trkpt>
      <trkpt lat="50.676062" lon="6.403812">
        <ele>0.000000</ele>
        <time>2009-12-17T10:05:53Z</time>
      </trkpt>
      <trkpt lat="50.676018" lon="6.403871">
        <ele>0.000000</ele>
        <time>2009-12-17T10:05:53Z</time>
      </trkpt>
      <trkpt lat="50.675566" lon="6.404536">
        <ele>0.000000</ele>
        <time>2009-12-17T10:05:53Z</time>
      </trkpt>
      <trkpt lat="50.675130" lon="6.405314">
        <ele>0.000000</ele>
        <time>2009-12-17T10:05:53Z</time>
      </trkpt>
      <trkpt lat="50.674998" lon="6.405539">
        <ele>0.000000</ele>
        <time>2009-12-17T10:05:53Z</time>
      </trkpt>
      <trkpt lat="50.674570" lon="6.406161">
        <ele>0.000000</ele>
        <time>2009-12-17T10:05:53Z</time>
      </trkpt>
      <trkpt lat="50.674134" lon="6.406381">
        <ele>0.000000</ele>
        <time>2009-12-17T10:05:53Z</time>
      </trkpt>
      <trkpt lat="50.673675" lon="6.406526">
        <ele>0.000000</ele>
        <time>2009-12-17T10:05:53Z</time>
      </trkpt>
      <trkpt lat="50.673329" lon="6.406601">
        <ele>0.000000</ele>
        <time>2009-12-17T10:05:53Z</time>
      </trkpt>
      <trkpt lat="50.672792" lon="6.406547">
        <ele>0.000000</ele>
        <time>2009-12-17T10:05:53Z</time>
      </trkpt>
      <trkpt lat="50.672469" lon="6.406478">
        <ele>0.000000</ele>
        <time>2009-12-17T10:05:53Z</time>
      </trkpt>
      <trkpt lat="50.672050" lon="6.406354">
        <ele>0.000000</ele>
        <time>2009-12-17T10:05:53Z</time>
      </trkpt>
      <trkpt lat="50.671884" lon="6.406285">
        <ele>0.000000</ele>
        <time>2009-12-17T10:05:53Z</time>
      </trkpt>
      <trkpt lat="50.671527" lon="6.406279">
        <ele>0.000000</ele>
        <time>2009-12-17T10:05:53Z</time>
      </trkpt>
      <trkpt lat="50.671030" lon="6.406467">
        <ele>0.000000</ele>
        <time>2009-12-17T10:05:53Z</time>
      </trkpt>
      <trkpt lat="50.670847" lon="6.406708">
        <ele>0.000000</ele>
        <time>2009-12-17T10:05:53Z</time>
      </trkpt>
      <trkpt lat="50.670500" lon="6.406901">
        <ele>0.000000</ele>
        <time>2009-12-17T10:05:53Z</time>
      </trkpt>
      <trkpt lat="50.670262" lon="6.407164">
        <ele>0.000000</ele>
        <time>2009-12-17T10:05:53Z</time>
      </trkpt>
      <trkpt lat="50.670126" lon="6.407288">
        <ele>0.000000</ele>
        <time>2009-12-17T10:05:53Z</time>
      </trkpt>
      <trkpt lat="50.669786" lon="6.407443">
        <ele>0.000000</ele>
        <time>2009-12-17T10:05:53Z</time>
      </trkpt>
      <trkpt lat="50.669092" lon="6.407583">
        <ele>0.000000</ele>
        <time>2009-12-17T10:05:53Z</time>
      </trkpt>
      <trkpt lat="50.669082" lon="6.407518">
        <ele>0.000000</ele>
        <time>2009-12-17T10:05:53Z</time>
      </trkpt>
      <trkpt lat="50.669082" lon="6.407379">
        <ele>0.000000</ele>
        <time>2009-12-17T10:05:53Z</time>
      </trkpt>
      <trkpt lat="50.669127" lon="6.407239">
        <ele>0.000000</ele>
        <time>2009-12-17T10:05:53Z</time>
      </trkpt>
      <trkpt lat="50.669154" lon="6.407052">
        <ele>0.000000</ele>
        <time>2009-12-17T10:05:53Z</time>
      </trkpt>
      <trkpt lat="50.669215" lon="6.406966">
        <ele>0.000000</ele>
        <time>2009-12-17T10:05:53Z</time>
      </trkpt>
      <trkpt lat="50.669432" lon="6.406767">
        <ele>0.000000</ele>
        <time>2009-12-17T10:05:53Z</time>
      </trkpt>
      <trkpt lat="50.669599" lon="6.406612">
        <ele>0.000000</ele>
        <time>2009-12-17T10:05:53Z</time>
      </trkpt>
      <trkpt lat="50.669749" lon="6.406360">
        <ele>0.000000</ele>
        <time>2009-12-17T10:05:53Z</time>
      </trkpt>
      <trkpt lat="50.669820" lon="6.406161">
        <ele>0.000000</ele>
        <time>2009-12-17T10:05:53Z</time>
      </trkpt>
      <trkpt lat="50.669803" lon="6.406043">
        <ele>0.000000</ele>
        <time>2009-12-17T10:05:53Z</time>
      </trkpt>
      <trkpt lat="50.669738" lon="6.405963">
        <ele>0.000000</ele>
        <time>2009-12-17T10:05:53Z</time>
      </trkpt>
      <trkpt lat="50.669671" lon="6.405947">
        <ele>0.000000</ele>
        <time>2009-12-17T10:05:53Z</time>
      </trkpt>
      <trkpt lat="50.669514" lon="6.406081">
        <ele>0.000000</ele>
        <time>2009-12-17T10:05:53Z</time>
      </trkpt>
      <trkpt lat="50.669249" lon="6.406403">
        <ele>0.000000</ele>
        <time>2009-12-17T10:05:53Z</time>
      </trkpt>
      <trkpt lat="50.669130" lon="6.406446">
        <ele>0.000000</ele>
        <time>2009-12-17T10:05:53Z</time>
      </trkpt>
      <trkpt lat="50.668994" lon="6.406435">
        <ele>0.000000</ele>
        <time>2009-12-17T10:05:53Z</time>
      </trkpt>
      <trkpt lat="50.668994" lon="6.406226">
        <ele>0.000000</ele>
        <time>2009-12-17T10:05:53Z</time>
      </trkpt>
      <trkpt lat="50.669011" lon="6.405973">
        <ele>0.000000</ele>
        <time>2009-12-17T10:05:53Z</time>
      </trkpt>
      <trkpt lat="50.669103" lon="6.405534">
        <ele>0.000000</ele>
        <time>2009-12-17T10:05:53Z</time>
      </trkpt>
      <trkpt lat="50.669177" lon="6.405233">
        <ele>0.000000</ele>
        <time>2009-12-17T10:05:53Z</time>
      </trkpt>
      <trkpt lat="50.669327" lon="6.404997">
        <ele>0.000000</ele>
        <time>2009-12-17T10:05:53Z</time>
      </trkpt>
      <trkpt lat="50.669548" lon="6.404766">
        <ele>0.000000</ele>
        <time>2009-12-17T10:05:53Z</time>
      </trkpt>
      <trkpt lat="50.669704" lon="6.404622">
        <ele>0.000000</ele>
        <time>2009-12-17T10:05:53Z</time>
      </trkpt>
      <trkpt lat="50.669936" lon="6.404466">
        <ele>0.000000</ele>
        <time>2009-12-17T10:05:53Z</time>
      </trkpt>
      <trkpt lat="50.670147" lon="6.404294">
        <ele>0.000000</ele>
        <time>2009-12-17T10:05:53Z</time>
      </trkpt>
      <trkpt lat="50.670391" lon="6.404064">
        <ele>0.000000</ele>
        <time>2009-12-17T10:05:53Z</time>
      </trkpt>
      <trkpt lat="50.670663" lon="6.403919">
        <ele>0.000000</ele>
        <time>2009-12-17T10:05:53Z</time>
      </trkpt>
      <trkpt lat="50.670867" lon="6.403838">
        <ele>0.000000</ele>
        <time>2009-12-17T10:05:53Z</time>
      </trkpt>
      <trkpt lat="50.671126" lon="6.403774">
        <ele>0.000000</ele>
        <time>2009-12-17T10:05:53Z</time>
      </trkpt>
      <trkpt lat="50.671302" lon="6.403720">
        <ele>0.000000</ele>
        <time>2009-12-17T10:05:53Z</time>
      </trkpt>
      <trkpt lat="50.671319" lon="6.403602">
        <ele>0.000000</ele>
        <time>2009-12-17T10:05:53Z</time>
      </trkpt>
      <trkpt lat="50.671282" lon="6.403366">
        <ele>0.000000</ele>
        <time>2009-12-17T10:05:53Z</time>
      </trkpt>
      <trkpt lat="50.671078" lon="6.402326">
        <ele>0.000000</ele>
        <time>2009-12-17T10:05:53Z</time>
      </trkpt>
      <trkpt lat="50.670891" lon="6.401376">
        <ele>0.000000</ele>
        <time>2009-12-17T10:05:53Z</time>
      </trkpt>
      <trkpt lat="50.670793" lon="6.401022">
        <ele>0.000000</ele>
        <time>2009-12-17T10:05:53Z</time>
      </trkpt>
      <trkpt lat="50.670796" lon="6.400958">
        <ele>0.000000</ele>
        <time>2009-12-17T10:05:53Z</time>
      </trkpt>
      <trkpt lat="50.670786" lon="6.399606">
        <ele>0.000000</ele>
        <time>2009-12-17T10:05:53Z</time>
      </trkpt>
      <trkpt lat="50.670772" lon="6.398565">
        <ele>0.000000</ele>
        <time>2009-12-17T10:05:53Z</time>
      </trkpt>
      <trkpt lat="50.670765" lon="6.397798">
        <ele>0.000000</ele>
        <time>2009-12-17T10:05:53Z</time>
      </trkpt>
      <trkpt lat="50.671003" lon="6.397498">
        <ele>0.000000</ele>
        <time>2009-12-17T10:05:53Z</time>
      </trkpt>
      <trkpt lat="50.671439" lon="6.397165">
        <ele>0.000000</ele>
        <time>2009-12-17T10:05:53Z</time>
      </trkpt>
      <trkpt lat="50.671857" lon="6.396838">
        <ele>0.000000</ele>
        <time>2009-12-17T10:05:53Z</time>
      </trkpt>
      <trkpt lat="50.672322" lon="6.396446">
        <ele>0.000000</ele>
        <time>2009-12-17T10:05:53Z</time>
      </trkpt>
      <trkpt lat="50.672894" lon="6.396012">
        <ele>0.000000</ele>
        <time>2009-12-17T10:05:53Z</time>
      </trkpt>
      <trkpt lat="50.673625" lon="6.395470">
        <ele>0.000000</ele>
        <time>2009-12-17T10:05:53Z</time>
      </trkpt>
      <trkpt lat="50.673829" lon="6.395127">
        <ele>0.000000</ele>
        <time>2009-12-17T10:05:53Z</time>
      </trkpt>
      <trkpt lat="50.674097" lon="6.394789">
        <ele>0.000000</ele>
        <time>2009-12-17T10:05:53Z</time>
      </trkpt>
      <trkpt lat="50.674172" lon="6.394708">
        <ele>0.000000</ele>
        <time>2009-12-17T10:05:53Z</time>
      </trkpt>
      <trkpt lat="50.674508" lon="6.394386">
        <ele>0.000000</ele>
        <time>2009-12-17T10:05:53Z</time>
      </trkpt>
      <trkpt lat="50.674536" lon="6.394284">
        <ele>0.000000</ele>
        <time>2009-12-17T10:05:53Z</time>
      </trkpt>
      <trkpt lat="50.674468" lon="6.394107">
        <ele>0.000000</ele>
        <time>2009-12-17T10:05:53Z</time>
      </trkpt>
      <trkpt lat="50.674491" lon="6.393431">
        <ele>0.000000</ele>
        <time>2009-12-17T10:05:53Z</time>
      </trkpt>
      <trkpt lat="50.674508" lon="6.392734">
        <ele>0.000000</ele>
        <time>2009-12-17T10:05:53Z</time>
      </trkpt>
      <trkpt lat="50.674634" lon="6.392637">
        <ele>0.000000</ele>
        <time>2009-12-17T10:05:53Z</time>
      </trkpt>
      <trkpt lat="50.674519" lon="6.392460">
        <ele>0.000000</ele>
        <time>2009-12-17T10:05:53Z</time>
      </trkpt>
      <trkpt lat="50.674240" lon="6.391715">
        <ele>0.000000</ele>
        <time>2009-12-17T10:05:53Z</time>
      </trkpt>
      <trkpt lat="50.674053" lon="6.391227">
        <ele>0.000000</ele>
        <time>2009-12-17T10:05:53Z</time>
      </trkpt>
      <trkpt lat="50.673958" lon="6.391211">
        <ele>0.000000</ele>
        <time>2009-12-17T10:05:53Z</time>
      </trkpt>
      <trkpt lat="50.673903" lon="6.391280">
        <ele>0.000000</ele>
        <time>2009-12-17T10:05:53Z</time>
      </trkpt>
      <trkpt lat="50.673886" lon="6.391463">
        <ele>0.000000</ele>
        <time>2009-12-17T10:05:53Z</time>
      </trkpt>
      <trkpt lat="50.673856" lon="6.391790">
        <ele>0.000000</ele>
        <time>2009-12-17T10:05:53Z</time>
      </trkpt>
      <trkpt lat="50.673642" lon="6.392332">
        <ele>0.000000</ele>
        <time>2009-12-17T10:05:53Z</time>
      </trkpt>
      <trkpt lat="50.673465" lon="6.392428">
        <ele>0.000000</ele>
        <time>2009-12-17T10:05:53Z</time>
      </trkpt>
      <trkpt lat="50.673237" lon="6.392385">
        <ele>0.000000</ele>
        <time>2009-12-17T10:05:53Z</time>
      </trkpt>
      <trkpt lat="50.673050" lon="6.392278">
        <ele>0.000000</ele>
        <time>2009-12-17T10:05:53Z</time>
      </trkpt>
      <trkpt lat="50.672839" lon="6.392117">
        <ele>0.000000</ele>
        <time>2009-12-17T10:05:53Z</time>
      </trkpt>
      <trkpt lat="50.672683" lon="6.391897">
        <ele>0.000000</ele>
        <time>2009-12-17T10:05:53Z</time>
      </trkpt>
      <trkpt lat="50.672275" lon="6.391538">
        <ele>0.000000</ele>
        <time>2009-12-17T10:05:53Z</time>
      </trkpt>
      <trkpt lat="50.671884" lon="6.391017">
        <ele>0.000000</ele>
        <time>2009-12-17T10:05:53Z</time>
      </trkpt>
      <trkpt lat="50.671574" lon="6.390615">
        <ele>0.000000</ele>
        <time>2009-12-17T10:05:53Z</time>
      </trkpt>
      <trkpt lat="50.671238" lon="6.390256">
        <ele>0.000000</ele>
        <time>2009-12-17T10:05:53Z</time>
      </trkpt>
      <trkpt lat="50.671013" lon="6.390014">
        <ele>0.000000</ele>
        <time>2009-12-17T10:05:53Z</time>
      </trkpt>
      <trkpt lat="50.670820" lon="6.389928">
        <ele>0.000000</ele>
        <time>2009-12-17T10:05:53Z</time>
      </trkpt>
      <trkpt lat="50.670874" lon="6.389859">
        <ele>0.000000</ele>
        <time>2009-12-17T10:05:53Z</time>
      </trkpt>
      <trkpt lat="50.671248" lon="6.389730">
        <ele>0.000000</ele>
        <time>2009-12-17T10:05:53Z</time>
      </trkpt>
      <trkpt lat="50.671469" lon="6.389762">
        <ele>0.000000</ele>
        <time>2009-12-17T10:05:53Z</time>
      </trkpt>
      <trkpt lat="50.671765" lon="6.389789">
        <ele>0.000000</ele>
        <time>2009-12-17T10:05:53Z</time>
      </trkpt>
      <trkpt lat="50.671972" lon="6.389837">
        <ele>0.000000</ele>
        <time>2009-12-17T10:05:53Z</time>
      </trkpt>
      <trkpt lat="50.672197" lon="6.389912">
        <ele>0.000000</ele>
        <time>2009-12-17T10:05:53Z</time>
      </trkpt>
      <trkpt lat="50.672475" lon="6.389971">
        <ele>0.000000</ele>
        <time>2009-12-17T10:05:53Z</time>
      </trkpt>
      <trkpt lat="50.672707" lon="6.389864">
        <ele>0.000000</ele>
        <time>2009-12-17T10:05:53Z</time>
      </trkpt>
      <trkpt lat="50.672958" lon="6.389698">
        <ele>0.000000</ele>
        <time>2009-12-17T10:05:53Z</time>
      </trkpt>
      <trkpt lat="50.673397" lon="6.389365">
        <ele>0.000000</ele>
        <time>2009-12-17T10:05:53Z</time>
      </trkpt>
      <trkpt lat="50.673740" lon="6.389129">
        <ele>0.000000</ele>
        <time>2009-12-17T10:05:53Z</time>
      </trkpt>
      <trkpt lat="50.673876" lon="6.389161">
        <ele>0.000000</ele>
        <time>2009-12-17T10:05:53Z</time>
      </trkpt>
      <trkpt lat="50.674029" lon="6.389151">
        <ele>0.000000</ele>
        <time>2009-12-17T10:05:53Z</time>
      </trkpt>
      <trkpt lat="50.674243" lon="6.389113">
        <ele>0.000000</ele>
        <time>2009-12-17T10:05:53Z</time>
      </trkpt>
      <trkpt lat="50.674301" lon="6.389049">
        <ele>0.000000</ele>
        <time>2009-12-17T10:05:53Z</time>
      </trkpt>
      <trkpt lat="50.674291" lon="6.388974">
        <ele>0.000000</ele>
        <time>2009-12-17T10:05:53Z</time>
      </trkpt>
      <trkpt lat="50.674199" lon="6.389027">
        <ele>0.000000</ele>
        <time>2009-12-17T10:05:53Z</time>
      </trkpt>
      <trkpt lat="50.674049" lon="6.389049">
        <ele>0.000000</ele>
        <time>2009-12-17T10:05:53Z</time>
      </trkpt>
      <trkpt lat="50.673985" lon="6.389033">
        <ele>0.000000</ele>
        <time>2009-12-17T10:05:53Z</time>
      </trkpt>
      <trkpt lat="50.673720" lon="6.388952">
        <ele>0.000000</ele>
        <time>2009-12-17T10:05:53Z</time>
      </trkpt>
      <trkpt lat="50.673434" lon="6.388952">
        <ele>0.000000</ele>
        <time>2009-12-17T10:05:53Z</time>
      </trkpt>
      <trkpt lat="50.673373" lon="6.388834">
        <ele>0.000000</ele>
        <time>2009-12-17T10:05:53Z</time>
      </trkpt>
      <trkpt lat="50.673682" lon="6.388813">
        <ele>0.000000</ele>
        <time>2009-12-17T10:05:53Z</time>
      </trkpt>
      <trkpt lat="50.673839" lon="6.388866">
        <ele>0.000000</ele>
        <time>2009-12-17T10:05:53Z</time>
      </trkpt>
      <trkpt lat="50.673985" lon="6.388898">
        <ele>0.000000</ele>
        <time>2009-12-17T10:05:53Z</time>
      </trkpt>
      <trkpt lat="50.674053" lon="6.388829">
        <ele>0.000000</ele>
        <time>2009-12-17T10:05:53Z</time>
      </trkpt>
      <trkpt lat="50.674049" lon="6.388791">
        <ele>0.000000</ele>
        <time>2009-12-17T10:05:53Z</time>
      </trkpt>
      <trkpt lat="50.673924" lon="6.388797">
        <ele>0.000000</ele>
        <time>2009-12-17T10:05:53Z</time>
      </trkpt>
      <trkpt lat="50.673648" lon="6.388641">
        <ele>0.000000</ele>
        <time>2009-12-17T10:05:53Z</time>
      </trkpt>
      <trkpt lat="50.673410" lon="6.388443">
        <ele>0.000000</ele>
        <time>2009-12-17T10:05:53Z</time>
      </trkpt>
      <trkpt lat="50.673220" lon="6.388228">
        <ele>0.000000</ele>
        <time>2009-12-17T10:05:53Z</time>
      </trkpt>
      <trkpt lat="50.672989" lon="6.388051">
        <ele>0.000000</ele>
        <time>2009-12-17T10:05:53Z</time>
      </trkpt>
      <trkpt lat="50.672815" lon="6.387804">
        <ele>0.000000</ele>
        <time>2009-12-17T10:05:53Z</time>
      </trkpt>
      <trkpt lat="50.672805" lon="6.387691">
        <ele>0.000000</ele>
        <time>2009-12-17T10:05:53Z</time>
      </trkpt>
      <trkpt lat="50.672877" lon="6.387584">
        <ele>0.000000</ele>
        <time>2009-12-17T10:05:53Z</time>
      </trkpt>
      <trkpt lat="50.672962" lon="6.387531">
        <ele>0.000000</ele>
        <time>2009-12-17T10:05:53Z</time>
      </trkpt>
      <trkpt lat="50.673301" lon="6.387375">
        <ele>0.000000</ele>
        <time>2009-12-17T10:05:53Z</time>
      </trkpt>
      <trkpt lat="50.673621" lon="6.386967">
        <ele>0.000000</ele>
        <time>2009-12-17T10:05:53Z</time>
      </trkpt>
      <trkpt lat="50.673669" lon="6.386935">
        <ele>0.000000</ele>
        <time>2009-12-17T10:05:53Z</time>
      </trkpt>
      <trkpt lat="50.673750" lon="6.386898">
        <ele>0.000000</ele>
        <time>2009-12-17T10:05:53Z</time>
      </trkpt>
      <trkpt lat="50.673672" lon="6.386855">
        <ele>0.000000</ele>
        <time>2009-12-17T10:05:53Z</time>
      </trkpt>
      <trkpt lat="50.673577" lon="6.386790">
        <ele>0.000000</ele>
        <time>2009-12-17T10:05:53Z</time>
      </trkpt>
      <trkpt lat="50.673285" lon="6.386678">
        <ele>0.000000</ele>
        <time>2009-12-17T10:05:53Z</time>
      </trkpt>
      <trkpt lat="50.672962" lon="6.386393">
        <ele>0.000000</ele>
        <time>2009-12-17T10:05:53Z</time>
      </trkpt>
      <trkpt lat="50.672744" lon="6.386136">
        <ele>0.000000</ele>
        <time>2009-12-17T10:05:53Z</time>
      </trkpt>
      <trkpt lat="50.672482" lon="6.385680">
        <ele>0.000000</ele>
        <time>2009-12-17T10:05:53Z</time>
      </trkpt>
      <trkpt lat="50.672486" lon="6.385401">
        <ele>0.000000</ele>
        <time>2009-12-17T10:05:53Z</time>
      </trkpt>
      <trkpt lat="50.672513" lon="6.385159">
        <ele>0.000000</ele>
        <time>2009-12-17T10:05:53Z</time>
      </trkpt>
      <trkpt lat="50.672564" lon="6.385025">
        <ele>0.000000</ele>
        <time>2009-12-17T10:05:53Z</time>
      </trkpt>
      <trkpt lat="50.672788" lon="6.384886">
        <ele>0.000000</ele>
        <time>2009-12-17T10:05:53Z</time>
      </trkpt>
      <trkpt lat="50.672894" lon="6.384709">
        <ele>0.000000</ele>
        <time>2009-12-17T10:05:53Z</time>
      </trkpt>
      <trkpt lat="50.673036" lon="6.384387">
        <ele>0.000000</ele>
        <time>2009-12-17T10:05:53Z</time>
      </trkpt>
      <trkpt lat="50.673152" lon="6.384156">
        <ele>0.000000</ele>
        <time>2009-12-17T10:05:53Z</time>
      </trkpt>
      <trkpt lat="50.673254" lon="6.383893">
        <ele>0.000000</ele>
        <time>2009-12-17T10:05:53Z</time>
      </trkpt>
      <trkpt lat="50.673261" lon="6.383792">
        <ele>0.000000</ele>
        <time>2009-12-17T10:05:53Z</time>
      </trkpt>
      <trkpt lat="50.673247" lon="6.383668">
        <ele>0.000000</ele>
        <time>2009-12-17T10:05:53Z</time>
      </trkpt>
      <trkpt lat="50.673169" lon="6.383507">
        <ele>0.000000</ele>
        <time>2009-12-17T10:05:53Z</time>
      </trkpt>
      <trkpt lat="50.672924" lon="6.383443">
        <ele>0.000000</ele>
        <time>2009-12-17T10:05:53Z</time>
      </trkpt>
      <trkpt lat="50.672717" lon="6.383384">
        <ele>0.000000</ele>
        <time>2009-12-17T10:05:53Z</time>
      </trkpt>
      <trkpt lat="50.672530" lon="6.383094">
        <ele>0.000000</ele>
        <time>2009-12-17T10:05:53Z</time>
      </trkpt>
      <trkpt lat="50.672496" lon="6.382890">
        <ele>0.000000</ele>
        <time>2009-12-17T10:05:53Z</time>
      </trkpt>
      <trkpt lat="50.672496" lon="6.382182">
        <ele>0.000000</ele>
        <time>2009-12-17T10:05:53Z</time>
      </trkpt>
      <trkpt lat="50.672594" lon="6.382118">
        <ele>0.000000</ele>
        <time>2009-12-17T10:05:53Z</time>
      </trkpt>
      <trkpt lat="50.672635" lon="6.382016">
        <ele>0.000000</ele>
        <time>2009-12-17T10:05:53Z</time>
      </trkpt>
      <trkpt lat="50.672560" lon="6.381410">
        <ele>0.000000</ele>
        <time>2009-12-17T10:05:53Z</time>
      </trkpt>
      <trkpt lat="50.672577" lon="6.381093">
        <ele>0.000000</ele>
        <time>2009-12-17T10:05:53Z</time>
      </trkpt>
      <trkpt lat="50.672642" lon="6.380857">
        <ele>0.000000</ele>
        <time>2009-12-17T10:05:53Z</time>
      </trkpt>
      <trkpt lat="50.672707" lon="6.380444">
        <ele>0.000000</ele>
        <time>2009-12-17T10:05:53Z</time>
      </trkpt>
      <trkpt lat="50.672707" lon="6.379886">
        <ele>0.000000</ele>
        <time>2009-12-17T10:05:53Z</time>
      </trkpt>
      <trkpt lat="50.672737" lon="6.379135">
        <ele>0.000000</ele>
        <time>2009-12-17T10:05:53Z</time>
      </trkpt>
      <trkpt lat="50.672764" lon="6.378921">
        <ele>0.000000</ele>
        <time>2009-12-17T10:05:53Z</time>
      </trkpt>
      <trkpt lat="50.672911" lon="6.378234">
        <ele>0.000000</ele>
        <time>2009-12-17T10:05:53Z</time>
      </trkpt>
      <trkpt lat="50.673036" lon="6.377987">
        <ele>0.000000</ele>
        <time>2009-12-17T10:05:53Z</time>
      </trkpt>
      <trkpt lat="50.673183" lon="6.377778">
        <ele>0.000000</ele>
        <time>2009-12-17T10:05:53Z</time>
      </trkpt>
      <trkpt lat="50.673448" lon="6.377108">
        <ele>0.000000</ele>
        <time>2009-12-17T10:05:53Z</time>
      </trkpt>
      <trkpt lat="50.673502" lon="6.376904">
        <ele>0.000000</ele>
        <time>2009-12-17T10:05:53Z</time>
      </trkpt>
      <trkpt lat="50.673645" lon="6.376694">
        <ele>0.000000</ele>
        <time>2009-12-17T10:05:53Z</time>
      </trkpt>
      <trkpt lat="50.673890" lon="6.376389">
        <ele>0.000000</ele>
        <time>2009-12-17T10:05:53Z</time>
      </trkpt>
      <trkpt lat="50.674151" lon="6.376110">
        <ele>0.000000</ele>
        <time>2009-12-17T10:05:53Z</time>
      </trkpt>
      <trkpt lat="50.674267" lon="6.375960">
        <ele>0.000000</ele>
        <time>2009-12-17T10:05:53Z</time>
      </trkpt>
      <trkpt lat="50.674321" lon="6.375847">
        <ele>0.000000</ele>
        <time>2009-12-17T10:05:53Z</time>
      </trkpt>
      <trkpt lat="50.674332" lon="6.375788">
        <ele>0.000000</ele>
        <time>2009-12-17T10:05:53Z</time>
      </trkpt>
      <trkpt lat="50.674342" lon="6.375294">
        <ele>0.000000</ele>
        <time>2009-12-17T10:05:53Z</time>
      </trkpt>
      <trkpt lat="50.674355" lon="6.374951">
        <ele>0.000000</ele>
        <time>2009-12-17T10:05:53Z</time>
      </trkpt>
      <trkpt lat="50.674345" lon="6.374651">
        <ele>0.000000</ele>
        <time>2009-12-17T10:05:53Z</time>
      </trkpt>
      <trkpt lat="50.674325" lon="6.374500">
        <ele>0.000000</ele>
        <time>2009-12-17T10:05:53Z</time>
      </trkpt>
      <trkpt lat="50.674267" lon="6.374281">
        <ele>0.000000</ele>
        <time>2009-12-17T10:05:53Z</time>
      </trkpt>
      <trkpt lat="50.674230" lon="6.374211">
        <ele>0.000000</ele>
        <time>2009-12-17T10:05:53Z</time>
      </trkpt>
      <trkpt lat="50.674087" lon="6.373959">
        <ele>0.000000</ele>
        <time>2009-12-17T10:05:53Z</time>
      </trkpt>
      <trkpt lat="50.673818" lon="6.373663">
        <ele>0.000000</ele>
        <time>2009-12-17T10:05:53Z</time>
      </trkpt>
      <trkpt lat="50.673567" lon="6.373567">
        <ele>0.000000</ele>
        <time>2009-12-17T10:05:53Z</time>
      </trkpt>
      <trkpt lat="50.672962" lon="6.373352">
        <ele>0.000000</ele>
        <time>2009-12-17T10:05:53Z</time>
      </trkpt>
      <trkpt lat="50.672380" lon="6.373143">
        <ele>0.000000</ele>
        <time>2009-12-17T10:05:53Z</time>
      </trkpt>
      <trkpt lat="50.671806" lon="6.372993">
        <ele>0.000000</ele>
        <time>2009-12-17T10:05:53Z</time>
      </trkpt>
      <trkpt lat="50.671449" lon="6.372864">
        <ele>0.000000</ele>
        <time>2009-12-17T10:05:53Z</time>
      </trkpt>
      <trkpt lat="50.671000" lon="6.372575">
        <ele>0.000000</ele>
        <time>2009-12-17T10:05:53Z</time>
      </trkpt>
      <trkpt lat="50.670708" lon="6.372247">
        <ele>0.000000</ele>
        <time>2009-12-17T10:05:53Z</time>
      </trkpt>
      <trkpt lat="50.670255" lon="6.371716">
        <ele>0.000000</ele>
        <time>2009-12-17T10:05:53Z</time>
      </trkpt>
      <trkpt lat="50.669936" lon="6.371287">
        <ele>0.000000</ele>
        <time>2009-12-17T10:05:53Z</time>
      </trkpt>
      <trkpt lat="50.669929" lon="6.371158">
        <ele>0.000000</ele>
        <time>2009-12-17T10:05:53Z</time>
      </trkpt>
      <trkpt lat="50.669871" lon="6.370928">
        <ele>0.000000</ele>
        <time>2009-12-17T10:05:53Z</time>
      </trkpt>
      <trkpt lat="50.669613" lon="6.370375">
        <ele>0.000000</ele>
        <time>2009-12-17T10:05:53Z</time>
      </trkpt>
      <trkpt lat="50.669388" lon="6.369758">
        <ele>0.000000</ele>
        <time>2009-12-17T10:05:53Z</time>
      </trkpt>
      <trkpt lat="50.669201" lon="6.368932">
        <ele>0.000000</ele>
        <time>2009-12-17T10:05:53Z</time>
      </trkpt>
      <trkpt lat="50.669110" lon="6.368530">
        <ele>0.000000</ele>
        <time>2009-12-17T10:05:53Z</time>
      </trkpt>
      <trkpt lat="50.668997" lon="6.367291">
        <ele>0.000000</ele>
        <time>2009-12-17T10:05:53Z</time>
      </trkpt>
      <trkpt lat="50.668926" lon="6.366100">
        <ele>0.000000</ele>
        <time>2009-12-17T10:05:53Z</time>
      </trkpt>
      <trkpt lat="50.668902" lon="6.365928">
        <ele>0.000000</ele>
        <time>2009-12-17T10:05:53Z</time>
      </trkpt>
      <trkpt lat="50.668912" lon="6.365821">
        <ele>0.000000</ele>
        <time>2009-12-17T10:05:53Z</time>
      </trkpt>
      <trkpt lat="50.668953" lon="6.365767">
        <ele>0.000000</ele>
        <time>2009-12-17T10:05:53Z</time>
      </trkpt>
      <trkpt lat="50.669065" lon="6.365654">
        <ele>0.000000</ele>
        <time>2009-12-17T10:05:53Z</time>
      </trkpt>
      <trkpt lat="50.669113" lon="6.365601">
        <ele>0.000000</ele>
        <time>2009-12-17T10:05:53Z</time>
      </trkpt>
      <trkpt lat="50.669205" lon="6.365354">
        <ele>0.000000</ele>
        <time>2009-12-17T10:05:53Z</time>
      </trkpt>
      <trkpt lat="50.669225" lon="6.365354">
        <ele>0.000000</ele>
        <time>2009-12-17T10:05:53Z</time>
      </trkpt>
      <trkpt lat="50.669279" lon="6.365531">
        <ele>0.000000</ele>
        <time>2009-12-17T10:05:53Z</time>
      </trkpt>
      <trkpt lat="50.669412" lon="6.365671">
        <ele>0.000000</ele>
        <time>2009-12-17T10:05:53Z</time>
      </trkpt>
      <trkpt lat="50.669416" lon="6.365392">
        <ele>0.000000</ele>
        <time>2009-12-17T10:05:53Z</time>
      </trkpt>
      <trkpt lat="50.669422" lon="6.365134">
        <ele>0.000000</ele>
        <time>2009-12-17T10:05:53Z</time>
      </trkpt>
      <trkpt lat="50.669419" lon="6.364716">
        <ele>0.000000</ele>
        <time>2009-12-17T10:05:53Z</time>
      </trkpt>
      <trkpt lat="50.669371" lon="6.364286">
        <ele>0.000000</ele>
        <time>2009-12-17T10:05:53Z</time>
      </trkpt>
      <trkpt lat="50.669344" lon="6.364061">
        <ele>0.000000</ele>
        <time>2009-12-17T10:05:53Z</time>
      </trkpt>
      <trkpt lat="50.669344" lon="6.363777">
        <ele>0.000000</ele>
        <time>2009-12-17T10:05:53Z</time>
      </trkpt>
      <trkpt lat="50.669484" lon="6.363165">
        <ele>0.000000</ele>
        <time>2009-12-17T10:05:53Z</time>
      </trkpt>
      <trkpt lat="50.669490" lon="6.363090">
        <ele>0.000000</ele>
        <time>2009-12-17T10:05:53Z</time>
      </trkpt>
      <trkpt lat="50.669480" lon="6.362811">
        <ele>0.000000</ele>
        <time>2009-12-17T10:05:53Z</time>
      </trkpt>
      <trkpt lat="50.669259" lon="6.362286">
        <ele>0.000000</ele>
        <time>2009-12-17T10:05:53Z</time>
      </trkpt>
      <trkpt lat="50.669028" lon="6.361835">
        <ele>0.000000</ele>
        <time>2009-12-17T10:05:53Z</time>
      </trkpt>
      <trkpt lat="50.668756" lon="6.361143">
        <ele>0.000000</ele>
        <time>2009-12-17T10:05:53Z</time>
      </trkpt>
      <trkpt lat="50.668657" lon="6.360912">
        <ele>0.000000</ele>
        <time>2009-12-17T10:05:53Z</time>
      </trkpt>
      <trkpt lat="50.668498" lon="6.360623">
        <ele>0.000000</ele>
        <time>2009-12-17T10:05:53Z</time>
      </trkpt>
      <trkpt lat="50.668042" lon="6.359770">
        <ele>0.000000</ele>
        <time>2009-12-17T10:05:53Z</time>
      </trkpt>
      <trkpt lat="50.667848" lon="6.359598">
        <ele>0.000000</ele>
        <time>2009-12-17T10:05:53Z</time>
      </trkpt>
      <trkpt lat="50.667790" lon="6.359560">
        <ele>0.000000</ele>
        <time>2009-12-17T10:05:53Z</time>
      </trkpt>
      <trkpt lat="50.667267" lon="6.359319">
        <ele>0.000000</ele>
        <time>2009-12-17T10:05:53Z</time>
      </trkpt>
      <trkpt lat="50.667117" lon="6.359314">
        <ele>0.000000</ele>
        <time>2009-12-17T10:05:53Z</time>
      </trkpt>
      <trkpt lat="50.666692" lon="6.359378">
        <ele>0.000000</ele>
        <time>2009-12-17T10:05:53Z</time>
      </trkpt>
      <trkpt lat="50.666145" lon="6.359373">
        <ele>0.000000</ele>
        <time>2009-12-17T10:05:53Z</time>
      </trkpt>
      <trkpt lat="50.665788" lon="6.359362">
        <ele>0.000000</ele>
        <time>2009-12-17T10:05:53Z</time>
      </trkpt>
      <trkpt lat="50.665692" lon="6.359292">
        <ele>0.000000</ele>
        <time>2009-12-17T10:05:53Z</time>
      </trkpt>
      <trkpt lat="50.665587" lon="6.359169">
        <ele>0.000000</ele>
        <time>2009-12-17T10:05:53Z</time>
      </trkpt>
      <trkpt lat="50.665478" lon="6.359035">
        <ele>0.000000</ele>
        <time>2009-12-17T10:05:53Z</time>
      </trkpt>
      <trkpt lat="50.665383" lon="6.358954">
        <ele>0.000000</ele>
        <time>2009-12-17T10:05:53Z</time>
      </trkpt>
      <trkpt lat="50.665227" lon="6.358895">
        <ele>0.000000</ele>
        <time>2009-12-17T10:05:53Z</time>
      </trkpt>
      <trkpt lat="50.665009" lon="6.358847">
        <ele>0.000000</ele>
        <time>2009-12-17T10:05:53Z</time>
      </trkpt>
      <trkpt lat="50.664938" lon="6.358826">
        <ele>0.000000</ele>
        <time>2009-12-17T10:05:53Z</time>
      </trkpt>
      <trkpt lat="50.664880" lon="6.358756">
        <ele>0.000000</ele>
        <time>2009-12-17T10:05:53Z</time>
      </trkpt>
      <trkpt lat="50.664846" lon="6.358713">
        <ele>0.000000</ele>
        <time>2009-12-17T10:05:53Z</time>
      </trkpt>
      <trkpt lat="50.664825" lon="6.358616">
        <ele>0.000000</ele>
        <time>2009-12-17T10:05:53Z</time>
      </trkpt>
      <trkpt lat="50.664832" lon="6.358509">
        <ele>0.000000</ele>
        <time>2009-12-17T10:05:53Z</time>
      </trkpt>
      <trkpt lat="50.664927" lon="6.358423">
        <ele>0.000000</ele>
        <time>2009-12-17T10:05:53Z</time>
      </trkpt>
      <trkpt lat="50.665230" lon="6.358273">
        <ele>0.000000</ele>
        <time>2009-12-17T10:05:53Z</time>
      </trkpt>
      <trkpt lat="50.665451" lon="6.358241">
        <ele>0.000000</ele>
        <time>2009-12-17T10:05:53Z</time>
      </trkpt>
      <trkpt lat="50.665686" lon="6.358327">
        <ele>0.000000</ele>
        <time>2009-12-17T10:05:53Z</time>
      </trkpt>
      <trkpt lat="50.665893" lon="6.358364">
        <ele>0.000000</ele>
        <time>2009-12-17T10:05:53Z</time>
      </trkpt>
      <trkpt lat="50.666016" lon="6.358380">
        <ele>0.000000</ele>
        <time>2009-12-17T10:05:53Z</time>
      </trkpt>
      <trkpt lat="50.666328" lon="6.358219">
        <ele>0.000000</ele>
        <time>2009-12-17T10:05:53Z</time>
      </trkpt>
      <trkpt lat="50.666390" lon="6.358096">
        <ele>0.000000</ele>
        <time>2009-12-17T10:05:53Z</time>
      </trkpt>
      <trkpt lat="50.666403" lon="6.357742">
        <ele>0.000000</ele>
        <time>2009-12-17T10:05:53Z</time>
      </trkpt>
      <trkpt lat="50.666427" lon="6.357597">
        <ele>0.000000</ele>
        <time>2009-12-17T10:05:53Z</time>
      </trkpt>
      <trkpt lat="50.666485" lon="6.357104">
        <ele>0.000000</ele>
        <time>2009-12-17T10:05:53Z</time>
      </trkpt>
      <trkpt lat="50.666498" lon="6.356680">
        <ele>0.000000</ele>
        <time>2009-12-17T10:05:53Z</time>
      </trkpt>
      <trkpt lat="50.666424" lon="6.355623">
        <ele>0.000000</ele>
        <time>2009-12-17T10:05:53Z</time>
      </trkpt>
      <trkpt lat="50.666298" lon="6.354159">
        <ele>0.000000</ele>
        <time>2009-12-17T10:05:53Z</time>
      </trkpt>
      <trkpt lat="50.666165" lon="6.353568">
        <ele>0.000000</ele>
        <time>2009-12-17T10:05:53Z</time>
      </trkpt>
      <trkpt lat="50.666845" lon="6.353252">
        <ele>0.000000</ele>
        <time>2009-12-17T10:05:53Z</time>
      </trkpt>
      <trkpt lat="50.666784" lon="6.353193">
        <ele>0.000000</ele>
        <time>2009-12-17T10:05:53Z</time>
      </trkpt>
      <trkpt lat="50.666682" lon="6.352871">
        <ele>0.000000</ele>
        <time>2009-12-17T10:05:53Z</time>
      </trkpt>
      <trkpt lat="50.666556" lon="6.352420">
        <ele>0.000000</ele>
        <time>2009-12-17T10:05:53Z</time>
      </trkpt>
      <trkpt lat="50.666468" lon="6.352243">
        <ele>0.000000</ele>
        <time>2009-12-17T10:05:53Z</time>
      </trkpt>
      <trkpt lat="50.666430" lon="6.352136">
        <ele>0.000000</ele>
        <time>2009-12-17T10:05:53Z</time>
      </trkpt>
      <trkpt lat="50.666386" lon="6.351981">
        <ele>0.000000</ele>
        <time>2009-12-17T10:05:53Z</time>
      </trkpt>
      <trkpt lat="50.666284" lon="6.351691">
        <ele>0.000000</ele>
        <time>2009-12-17T10:05:53Z</time>
      </trkpt>
      <trkpt lat="50.666233" lon="6.351573">
        <ele>0.000000</ele>
        <time>2009-12-17T10:05:53Z</time>
      </trkpt>
      <trkpt lat="50.666077" lon="6.351315">
        <ele>0.000000</ele>
        <time>2009-12-17T10:05:53Z</time>
      </trkpt>
      <trkpt lat="50.666053" lon="6.351160">
        <ele>0.000000</ele>
        <time>2009-12-17T10:05:53Z</time>
      </trkpt>
      <trkpt lat="50.666063" lon="6.351031">
        <ele>0.000000</ele>
        <time>2009-12-17T10:05:53Z</time>
      </trkpt>
      <trkpt lat="50.666083" lon="6.350961">
        <ele>0.000000</ele>
        <time>2009-12-17T10:05:53Z</time>
      </trkpt>
      <trkpt lat="50.666192" lon="6.350951">
        <ele>0.000000</ele>
        <time>2009-12-17T10:05:53Z</time>
      </trkpt>
      <trkpt lat="50.666294" lon="6.350972">
        <ele>0.000000</ele>
        <time>2009-12-17T10:05:53Z</time>
      </trkpt>
      <trkpt lat="50.666566" lon="6.351251">
        <ele>0.000000</ele>
        <time>2009-12-17T10:05:53Z</time>
      </trkpt>
      <trkpt lat="50.666689" lon="6.351358">
        <ele>0.000000</ele>
        <time>2009-12-17T10:05:53Z</time>
      </trkpt>
      <trkpt lat="50.666862" lon="6.351219">
        <ele>0.000000</ele>
        <time>2009-12-17T10:05:53Z</time>
      </trkpt>
      <trkpt lat="50.667035" lon="6.350881">
        <ele>0.000000</ele>
        <time>2009-12-17T10:05:53Z</time>
      </trkpt>
      <trkpt lat="50.667131" lon="6.350715">
        <ele>0.000000</ele>
        <time>2009-12-17T10:05:53Z</time>
      </trkpt>
      <trkpt lat="50.667229" lon="6.350725">
        <ele>0.000000</ele>
        <time>2009-12-17T10:05:53Z</time>
      </trkpt>
      <trkpt lat="50.667365" lon="6.350833">
        <ele>0.000000</ele>
        <time>2009-12-17T10:05:53Z</time>
      </trkpt>
      <trkpt lat="50.667471" lon="6.350945">
        <ele>0.000000</ele>
        <time>2009-12-17T10:05:53Z</time>
      </trkpt>
      <trkpt lat="50.667535" lon="6.351074">
        <ele>0.000000</ele>
        <time>2009-12-17T10:05:53Z</time>
      </trkpt>
      <trkpt lat="50.667807" lon="6.351428">
        <ele>0.000000</ele>
        <time>2009-12-17T10:05:53Z</time>
      </trkpt>
      <trkpt lat="50.668123" lon="6.351648">
        <ele>0.000000</ele>
        <time>2009-12-17T10:05:53Z</time>
      </trkpt>
      <trkpt lat="50.668321" lon="6.351809">
        <ele>0.000000</ele>
        <time>2009-12-17T10:05:53Z</time>
      </trkpt>
      <trkpt lat="50.668501" lon="6.352077">
        <ele>0.000000</ele>
        <time>2009-12-17T10:05:53Z</time>
      </trkpt>
      <trkpt lat="50.668722" lon="6.352184">
        <ele>0.000000</ele>
        <time>2009-12-17T10:05:53Z</time>
      </trkpt>
      <trkpt lat="50.668892" lon="6.352388">
        <ele>0.000000</ele>
        <time>2009-12-17T10:05:53Z</time>
      </trkpt>
      <trkpt lat="50.669191" lon="6.352726">
        <ele>0.000000</ele>
        <time>2009-12-17T10:05:53Z</time>
      </trkpt>
      <trkpt lat="50.669596" lon="6.353177">
        <ele>0.000000</ele>
        <time>2009-12-17T10:05:53Z</time>
      </trkpt>
      <trkpt lat="50.669640" lon="6.353343">
        <ele>0.000000</ele>
        <time>2009-12-17T10:05:53Z</time>
      </trkpt>
      <trkpt lat="50.669671" lon="6.353499">
        <ele>0.000000</ele>
        <time>2009-12-17T10:05:53Z</time>
      </trkpt>
      <trkpt lat="50.669701" lon="6.353627">
        <ele>0.000000</ele>
        <time>2009-12-17T10:05:53Z</time>
      </trkpt>
      <trkpt lat="50.669756" lon="6.353665">
        <ele>0.000000</ele>
        <time>2009-12-17T10:05:53Z</time>
      </trkpt>
      <trkpt lat="50.669796" lon="6.353654">
        <ele>0.000000</ele>
        <time>2009-12-17T10:05:53Z</time>
      </trkpt>
      <trkpt lat="50.669861" lon="6.353611">
        <ele>0.000000</ele>
        <time>2009-12-17T10:05:53Z</time>
      </trkpt>
      <trkpt lat="50.670187" lon="6.353155">
        <ele>0.000000</ele>
        <time>2009-12-17T10:05:53Z</time>
      </trkpt>
      <trkpt lat="50.670293" lon="6.352909">
        <ele>0.000000</ele>
        <time>2009-12-17T10:05:53Z</time>
      </trkpt>
      <trkpt lat="50.670378" lon="6.352614">
        <ele>0.000000</ele>
        <time>2009-12-17T10:05:53Z</time>
      </trkpt>
      <trkpt lat="50.670507" lon="6.352485">
        <ele>0.000000</ele>
        <time>2009-12-17T10:05:53Z</time>
      </trkpt>
      <trkpt lat="50.670629" lon="6.352420">
        <ele>0.000000</ele>
        <time>2009-12-17T10:05:53Z</time>
      </trkpt>
      <trkpt lat="50.670769" lon="6.352399">
        <ele>0.000000</ele>
        <time>2009-12-17T10:05:53Z</time>
      </trkpt>
      <trkpt lat="50.671024" lon="6.352528">
        <ele>0.000000</ele>
        <time>2009-12-17T10:05:53Z</time>
      </trkpt>
      <trkpt lat="50.671258" lon="6.352710">
        <ele>0.000000</ele>
        <time>2009-12-17T10:05:53Z</time>
      </trkpt>
      <trkpt lat="50.671486" lon="6.352952">
        <ele>0.000000</ele>
        <time>2009-12-17T10:05:53Z</time>
      </trkpt>
      <trkpt lat="50.671755" lon="6.353526">
        <ele>0.000000</ele>
        <time>2009-12-17T10:05:53Z</time>
      </trkpt>
      <trkpt lat="50.671789" lon="6.353531">
        <ele>0.000000</ele>
        <time>2009-12-17T10:05:53Z</time>
      </trkpt>
      <trkpt lat="50.671931" lon="6.353617">
        <ele>0.000000</ele>
        <time>2009-12-17T10:05:53Z</time>
      </trkpt>
      <trkpt lat="50.672251" lon="6.354046">
        <ele>0.000000</ele>
        <time>2009-12-17T10:05:53Z</time>
      </trkpt>
      <trkpt lat="50.672224" lon="6.353735">
        <ele>0.000000</ele>
        <time>2009-12-17T10:05:53Z</time>
      </trkpt>
      <trkpt lat="50.672411" lon="6.353375">
        <ele>0.000000</ele>
        <time>2009-12-17T10:05:53Z</time>
      </trkpt>
      <trkpt lat="50.672673" lon="6.352968">
        <ele>0.000000</ele>
        <time>2009-12-17T10:05:53Z</time>
      </trkpt>
      <trkpt lat="50.672938" lon="6.352324">
        <ele>0.000000</ele>
        <time>2009-12-17T10:05:53Z</time>
      </trkpt>
      <trkpt lat="50.672992" lon="6.352238">
        <ele>0.000000</ele>
        <time>2009-12-17T10:05:53Z</time>
      </trkpt>
      <trkpt lat="50.673223" lon="6.352351">
        <ele>0.000000</ele>
        <time>2009-12-17T10:05:53Z</time>
      </trkpt>
      <trkpt lat="50.674141" lon="6.352463">
        <ele>0.000000</ele>
        <time>2009-12-17T10:05:53Z</time>
      </trkpt>
      <trkpt lat="50.674753" lon="6.352538">
        <ele>0.000000</ele>
        <time>2009-12-17T10:05:53Z</time>
      </trkpt>
      <trkpt lat="50.674729" lon="6.352217">
        <ele>0.000000</ele>
        <time>2009-12-17T10:05:53Z</time>
      </trkpt>
      <trkpt lat="50.674706" lon="6.351830">
        <ele>0.000000</ele>
        <time>2009-12-17T10:05:53Z</time>
      </trkpt>
      <trkpt lat="50.674784" lon="6.351342">
        <ele>0.000000</ele>
        <time>2009-12-17T10:05:53Z</time>
      </trkpt>
      <trkpt lat="50.674954" lon="6.350977">
        <ele>0.000000</ele>
        <time>2009-12-17T10:05:53Z</time>
      </trkpt>
      <trkpt lat="50.675182" lon="6.350479">
        <ele>0.000000</ele>
        <time>2009-12-17T10:05:53Z</time>
      </trkpt>
      <trkpt lat="50.675491" lon="6.350661">
        <ele>0.000000</ele>
        <time>2009-12-17T10:05:53Z</time>
      </trkpt>
      <trkpt lat="50.675814" lon="6.350988">
        <ele>0.000000</ele>
        <time>2009-12-17T10:05:53Z</time>
      </trkpt>
      <trkpt lat="50.676314" lon="6.351487">
        <ele>0.000000</ele>
        <time>2009-12-17T10:05:53Z</time>
      </trkpt>
      <trkpt lat="50.676908" lon="6.352072">
        <ele>0.000000</ele>
        <time>2009-12-17T10:05:53Z</time>
      </trkpt>
      <trkpt lat="50.677058" lon="6.352066">
        <ele>0.000000</ele>
        <time>2009-12-17T10:05:53Z</time>
      </trkpt>
      <trkpt lat="50.677860" lon="6.351492">
        <ele>0.000000</ele>
        <time>2009-12-17T10:05:53Z</time>
      </trkpt>
      <trkpt lat="50.678713" lon="6.350902">
        <ele>0.000000</ele>
        <time>2009-12-17T10:05:53Z</time>
      </trkpt>
      <trkpt lat="50.679091" lon="6.350650">
        <ele>0.000000</ele>
        <time>2009-12-17T10:05:53Z</time>
      </trkpt>
      <trkpt lat="50.679264" lon="6.351508">
        <ele>0.000000</ele>
        <time>2009-12-17T10:05:53Z</time>
      </trkpt>
      <trkpt lat="50.679495" lon="6.352726">
        <ele>0.000000</ele>
        <time>2009-12-17T10:05:53Z</time>
      </trkpt>
      <trkpt lat="50.679839" lon="6.352935">
        <ele>0.000000</ele>
        <time>2009-12-17T10:05:53Z</time>
      </trkpt>
      <trkpt lat="50.680100" lon="6.352930">
        <ele>0.000000</ele>
        <time>2009-12-17T10:05:53Z</time>
      </trkpt>
      <trkpt lat="50.680138" lon="6.353032">
        <ele>0.000000</ele>
        <time>2009-12-17T10:05:53Z</time>
      </trkpt>
      <trkpt lat="50.680063" lon="6.353155">
        <ele>0.000000</ele>
        <time>2009-12-17T10:05:53Z</time>
      </trkpt>
      <trkpt lat="50.679954" lon="6.353418">
        <ele>0.000000</ele>
        <time>2009-12-17T10:05:53Z</time>
      </trkpt>
      <trkpt lat="50.679862" lon="6.353729">
        <ele>0.000000</ele>
        <time>2009-12-17T10:05:53Z</time>
      </trkpt>
      <trkpt lat="50.679815" lon="6.353987">
        <ele>0.000000</ele>
        <time>2009-12-17T10:05:53Z</time>
      </trkpt>
      <trkpt lat="50.679788" lon="6.354260">
        <ele>0.000000</ele>
        <time>2009-12-17T10:05:53Z</time>
      </trkpt>
      <trkpt lat="50.679743" lon="6.354405">
        <ele>0.000000</ele>
        <time>2009-12-17T10:05:53Z</time>
      </trkpt>
      <trkpt lat="50.679696" lon="6.354486">
        <ele>0.000000</ele>
        <time>2009-12-17T10:05:53Z</time>
      </trkpt>
      <trkpt lat="50.679618" lon="6.354566">
        <ele>0.000000</ele>
        <time>2009-12-17T10:05:53Z</time>
      </trkpt>
      <trkpt lat="50.679523" lon="6.354652">
        <ele>0.000000</ele>
        <time>2009-12-17T10:05:53Z</time>
      </trkpt>
      <trkpt lat="50.679461" lon="6.354813">
        <ele>0.000000</ele>
        <time>2009-12-17T10:05:53Z</time>
      </trkpt>
      <trkpt lat="50.679410" lon="6.355011">
        <ele>0.000000</ele>
        <time>2009-12-17T10:05:53Z</time>
      </trkpt>
      <trkpt lat="50.679407" lon="6.355301">
        <ele>0.000000</ele>
        <time>2009-12-17T10:05:53Z</time>
      </trkpt>
      <trkpt lat="50.679380" lon="6.355441">
        <ele>0.000000</ele>
        <time>2009-12-17T10:05:53Z</time>
      </trkpt>
      <trkpt lat="50.679291" lon="6.355693">
        <ele>0.000000</ele>
        <time>2009-12-17T10:05:53Z</time>
      </trkpt>
      <trkpt lat="50.679189" lon="6.355988">
        <ele>0.000000</ele>
        <time>2009-12-17T10:05:53Z</time>
      </trkpt>
      <trkpt lat="50.679070" lon="6.356551">
        <ele>0.000000</ele>
        <time>2009-12-17T10:05:53Z</time>
      </trkpt>
      <trkpt lat="50.679043" lon="6.356685">
        <ele>0.000000</ele>
        <time>2009-12-17T10:05:53Z</time>
      </trkpt>
      <trkpt lat="50.679016" lon="6.356905">
        <ele>0.000000</ele>
        <time>2009-12-17T10:05:53Z</time>
      </trkpt>
      <trkpt lat="50.678972" lon="6.357243">
        <ele>0.000000</ele>
        <time>2009-12-17T10:05:53Z</time>
      </trkpt>
      <trkpt lat="50.678999" lon="6.357393">
        <ele>0.000000</ele>
        <time>2009-12-17T10:05:53Z</time>
      </trkpt>
      <trkpt lat="50.679064" lon="6.357763">
        <ele>0.000000</ele>
        <time>2009-12-17T10:05:53Z</time>
      </trkpt>
      <trkpt lat="50.679149" lon="6.358150">
        <ele>0.000000</ele>
        <time>2009-12-17T10:05:53Z</time>
      </trkpt>
      <trkpt lat="50.679247" lon="6.358772">
        <ele>0.000000</ele>
        <time>2009-12-17T10:05:53Z</time>
      </trkpt>
      <trkpt lat="50.679353" lon="6.359383">
        <ele>0.000000</ele>
        <time>2009-12-17T10:05:53Z</time>
      </trkpt>
      <trkpt lat="50.679390" lon="6.359754">
        <ele>0.000000</ele>
        <time>2009-12-17T10:05:53Z</time>
      </trkpt>
      <trkpt lat="50.679397" lon="6.360333">
        <ele>0.000000</ele>
        <time>2009-12-17T10:05:53Z</time>
      </trkpt>
      <trkpt lat="50.679421" lon="6.360982">
        <ele>0.000000</ele>
        <time>2009-12-17T10:05:53Z</time>
      </trkpt>
      <trkpt lat="50.679444" lon="6.361438">
        <ele>0.000000</ele>
        <time>2009-12-17T10:05:53Z</time>
      </trkpt>
      <trkpt lat="50.679475" lon="6.361792">
        <ele>0.000000</ele>
        <time>2009-12-17T10:05:53Z</time>
      </trkpt>
      <trkpt lat="50.679567" lon="6.361974">
        <ele>0.000000</ele>
        <time>2009-12-17T10:05:53Z</time>
      </trkpt>
      <trkpt lat="50.679519" lon="6.362098">
        <ele>0.000000</ele>
        <time>2009-12-17T10:05:53Z</time>
      </trkpt>
      <trkpt lat="50.679403" lon="6.362409">
        <ele>0.000000</ele>
        <time>2009-12-17T10:05:53Z</time>
      </trkpt>
      <trkpt lat="50.679199" lon="6.362838">
        <ele>0.000000</ele>
        <time>2009-12-17T10:05:53Z</time>
      </trkpt>
      <trkpt lat="50.679070" lon="6.363423">
        <ele>0.000000</ele>
        <time>2009-12-17T10:05:53Z</time>
      </trkpt>
      <trkpt lat="50.678989" lon="6.364115">
        <ele>0.000000</ele>
        <time>2009-12-17T10:05:53Z</time>
      </trkpt>
      <trkpt lat="50.678948" lon="6.364630">
        <ele>0.000000</ele>
        <time>2009-12-17T10:05:53Z</time>
      </trkpt>
      <trkpt lat="50.678938" lon="6.365091">
        <ele>0.000000</ele>
        <time>2009-12-17T10:05:53Z</time>
      </trkpt>
      <trkpt lat="50.678897" lon="6.365402">
        <ele>0.000000</ele>
        <time>2009-12-17T10:05:53Z</time>
      </trkpt>
      <trkpt lat="50.678880" lon="6.365933">
        <ele>0.000000</ele>
        <time>2009-12-17T10:05:53Z</time>
      </trkpt>
      <trkpt lat="50.678907" lon="6.366470">
        <ele>0.000000</ele>
        <time>2009-12-17T10:05:53Z</time>
      </trkpt>
      <trkpt lat="50.678931" lon="6.366910">
        <ele>0.000000</ele>
        <time>2009-12-17T10:05:53Z</time>
      </trkpt>
      <trkpt lat="50.678904" lon="6.367242">
        <ele>0.000000</ele>
        <time>2009-12-17T10:05:53Z</time>
      </trkpt>
      <trkpt lat="50.678805" lon="6.367725">
        <ele>0.000000</ele>
        <time>2009-12-17T10:05:53Z</time>
      </trkpt>
      <trkpt lat="50.678815" lon="6.367902">
        <ele>0.000000</ele>
        <time>2009-12-17T10:05:53Z</time>
      </trkpt>
      <trkpt lat="50.678819" lon="6.368069">
        <ele>0.000000</ele>
        <time>2009-12-17T10:05:53Z</time>
      </trkpt>
      <trkpt lat="50.678768" lon="6.368186">
        <ele>0.000000</ele>
        <time>2009-12-17T10:05:53Z</time>
      </trkpt>
      <trkpt lat="50.678696" lon="6.368460">
        <ele>0.000000</ele>
        <time>2009-12-17T10:05:53Z</time>
      </trkpt>
      <trkpt lat="50.678635" lon="6.368750">
        <ele>0.000000</ele>
        <time>2009-12-17T10:05:53Z</time>
      </trkpt>
      <trkpt lat="50.678588" lon="6.369023">
        <ele>0.000000</ele>
        <time>2009-12-17T10:05:53Z</time>
      </trkpt>
      <trkpt lat="50.678496" lon="6.369426">
        <ele>0.000000</ele>
        <time>2009-12-17T10:05:53Z</time>
      </trkpt>
      <trkpt lat="50.678435" lon="6.369764">
        <ele>0.000000</ele>
        <time>2009-12-17T10:05:53Z</time>
      </trkpt>
      <trkpt lat="50.678401" lon="6.370085">
        <ele>0.000000</ele>
        <time>2009-12-17T10:05:53Z</time>
      </trkpt>
      <trkpt lat="50.678390" lon="6.370348">
        <ele>0.000000</ele>
        <time>2009-12-17T10:05:53Z</time>
      </trkpt>
      <trkpt lat="50.678380" lon="6.370713">
        <ele>0.000000</ele>
        <time>2009-12-17T10:05:53Z</time>
      </trkpt>
      <trkpt lat="50.678200" lon="6.370836">
        <ele>0.000000</ele>
        <time>2009-12-17T10:05:53Z</time>
      </trkpt>
      <trkpt lat="50.678098" lon="6.370981">
        <ele>0.000000</ele>
        <time>2009-12-17T10:05:53Z</time>
      </trkpt>
      <trkpt lat="50.678098" lon="6.371287">
        <ele>0.000000</ele>
        <time>2009-12-17T10:05:53Z</time>
      </trkpt>
      <trkpt lat="50.678088" lon="6.371588">
        <ele>0.000000</ele>
        <time>2009-12-17T10:05:53Z</time>
      </trkpt>
      <trkpt lat="50.678312" lon="6.371534">
        <ele>0.000000</ele>
        <time>2009-12-17T10:05:53Z</time>
      </trkpt>
      <trkpt lat="50.678513" lon="6.371577">
        <ele>0.000000</ele>
        <time>2009-12-17T10:05:53Z</time>
      </trkpt>
      <trkpt lat="50.678690" lon="6.371754">
        <ele>0.000000</ele>
        <time>2009-12-17T10:05:53Z</time>
      </trkpt>
      <trkpt lat="50.678883" lon="6.371947">
        <ele>0.000000</ele>
        <time>2009-12-17T10:05:53Z</time>
      </trkpt>
      <trkpt lat="50.679210" lon="6.372065">
        <ele>0.000000</ele>
        <time>2009-12-17T10:05:53Z</time>
      </trkpt>
      <trkpt lat="50.679353" lon="6.372312">
        <ele>0.000000</ele>
        <time>2009-12-17T10:05:53Z</time>
      </trkpt>
      <trkpt lat="50.679624" lon="6.372457">
        <ele>0.000000</ele>
        <time>2009-12-17T10:05:53Z</time>
      </trkpt>
      <trkpt lat="50.679947" lon="6.372660">
        <ele>0.000000</ele>
        <time>2009-12-17T10:05:53Z</time>
      </trkpt>
      <trkpt lat="50.680066" lon="6.372736">
        <ele>0.000000</ele>
        <time>2009-12-17T10:05:53Z</time>
      </trkpt>
      <trkpt lat="50.680111" lon="6.372709">
        <ele>0.000000</ele>
        <time>2009-12-17T10:05:53Z</time>
      </trkpt>
      <trkpt lat="50.680376" lon="6.372473">
        <ele>0.000000</ele>
        <time>2009-12-17T10:05:53Z</time>
      </trkpt>
      <trkpt lat="50.680549" lon="6.372312">
        <ele>0.000000</ele>
        <time>2009-12-17T10:05:53Z</time>
      </trkpt>
      <trkpt lat="50.680858" lon="6.372253">
        <ele>0.000000</ele>
        <time>2009-12-17T10:05:53Z</time>
      </trkpt>
      <trkpt lat="50.681293" lon="6.372124">
        <ele>0.000000</ele>
        <time>2009-12-17T10:05:53Z</time>
      </trkpt>
      <trkpt lat="50.681395" lon="6.372172">
        <ele>0.000000</ele>
        <time>2009-12-17T10:05:53Z</time>
      </trkpt>
      <trkpt lat="50.681582" lon="6.372124">
        <ele>0.000000</ele>
        <time>2009-12-17T10:05:53Z</time>
      </trkpt>
      <trkpt lat="50.681752" lon="6.372145">
        <ele>0.000000</ele>
        <time>2009-12-17T10:05:53Z</time>
      </trkpt>
      <trkpt lat="50.682432" lon="6.372414">
        <ele>0.000000</ele>
        <time>2009-12-17T10:05:53Z</time>
      </trkpt>
      <trkpt lat="50.683312" lon="6.372778">
        <ele>0.000000</ele>
        <time>2009-12-17T10:05:53Z</time>
      </trkpt>
      <trkpt lat="50.683856" lon="6.373476">
        <ele>0.000000</ele>
        <time>2009-12-17T10:05:53Z</time>
      </trkpt>
      <trkpt lat="50.683887" lon="6.373567">
        <ele>0.000000</ele>
        <time>2009-12-17T10:05:53Z</time>
      </trkpt>
      <trkpt lat="50.684023" lon="6.373851">
        <ele>0.000000</ele>
        <time>2009-12-17T10:05:53Z</time>
      </trkpt>
      <trkpt lat="50.684223" lon="6.374012">
        <ele>0.000000</ele>
        <time>2009-12-17T10:05:53Z</time>
      </trkpt>
      <trkpt lat="50.684353" lon="6.373959">
        <ele>0.000000</ele>
        <time>2009-12-17T10:05:53Z</time>
      </trkpt>
      <trkpt lat="50.684638" lon="6.373937">
        <ele>0.000000</ele>
        <time>2009-12-17T10:05:53Z</time>
      </trkpt>
      <trkpt lat="50.685008" lon="6.373932">
        <ele>0.000000</ele>
        <time>2009-12-17T10:05:53Z</time>
      </trkpt>
      <trkpt lat="50.685131" lon="6.373900">
        <ele>0.000000</ele>
        <time>2009-12-17T10:05:53Z</time>
      </trkpt>
      <trkpt lat="50.685195" lon="6.373835">
        <ele>0.000000</ele>
        <time>2009-12-17T10:05:53Z</time>
      </trkpt>
      <trkpt lat="50.685236" lon="6.373760">
        <ele>0.000000</ele>
        <time>2009-12-17T10:05:53Z</time>
      </trkpt>
      <trkpt lat="50.685393" lon="6.373851">
        <ele>0.000000</ele>
        <time>2009-12-17T10:05:53Z</time>
      </trkpt>
      <trkpt lat="50.685501" lon="6.373867">
        <ele>0.000000</ele>
        <time>2009-12-17T10:05:53Z</time>
      </trkpt>
    </trkseg>
  </trk>

</gpx>
